Le nostre stazioni meteo in Italia

Pubblicità
Il mio iltempo24.it
Pian Rosa, Italia (16052): Temperatura & dewpoint: 20.08.2019 12:00:00 - 26.08.2019 12:00:00 (CEST)Pian Rosa, Italia (16052): velocità del vento & gusts: 20.08.2019 12:00:00 - 26.08.2019 12:00:00 (CEST)Pian Rosa, Italia (16052): direzione del vento: 20.08.2019 12:00:00 - 26.08.2019 12:00:00 (CEST)Pian Rosa, Italia (16052): visibility: 20.08.2019 12:00:00 - 26.08.2019 12:00:00 (CEST)Pian Rosa, Italia (16052): ore di luce: 20.08.2019 12:00:00 - 26.08.2019 12:00:00 (CEST)
Data & Tempo tt [°C] td [°C] ff [km/h] ff [kn] fx [km/h] fx [kn] dd vv [km] sd [min]
26.08.2019 12:00:00 5,8 -0,5 2 1 - - NNO 20 60
26.08.2019 11:00:00 4,2 -18,0 4 2 - - NE 30 60
26.08.2019 10:00:00 3,2 -23,5 8 4 - - NE 30 60
26.08.2019 09:00:00 3,0 -25,7 15 8 - - NE 50 60
26.08.2019 08:00:00 2,4 -24,2 15 8 - - NE 50 0
26.08.2019 07:00:00 2,2 -17,3 15 8 - - NE 50 0
26.08.2019 06:00:00 1,6 -6,0 13 7 - - SSO 20 0
26.08.2019 05:00:00 2,0 -5,4 13 7 - - SSO 10 0
26.08.2019 04:00:00 2,4 -2,1 8 4 - - N 10 0
26.08.2019 03:00:00 2,6 2,0 9 5 - - SO 10 0
26.08.2019 02:00:00 2,8 2,1 5 3 - - N 0,5 0
26.08.2019 01:00:00 3,0 2,3 4 2 - - N 0,8 0
26.08.2019 00:00:00 3,4 2,7 11 6 - - SSO 10 0
25.08.2019 23:00:00 3,8 1,8 5 3 - - N 10 0
25.08.2019 22:00:00 5,0 -0,8 4 2 - - N 10 0
25.08.2019 21:00:00 4,2 -7,6 4 2 - - N 13 0
25.08.2019 20:00:00 5,6 -1,3 4 2 - - N 20 48
25.08.2019 19:00:00 6,0 -1,0 4 2 - - N 20 42
25.08.2019 18:00:00 6,2 -2,4 4 2 - - N 20 48
25.08.2019 17:00:00 6,0 0,5 5 3 - - N 6 0
25.08.2019 16:00:00 5,8 1,9 4 2 - - N 6 0
25.08.2019 15:00:00 6,4 0,9 4 2 - - N 3,0 36
25.08.2019 14:00:00 6,8 1,3 4 2 - - N 3,0 60
25.08.2019 13:00:00 5,2 -2,2 4 2 - - N 15 50
25.08.2019 12:00:00 3,6 -11,6 8 4 - - N 25 60
25.08.2019 11:00:00 3,2 -12,3 9 5 - - NE 50 60
25.08.2019 10:00:00 3,4 -14,3 9 5 - - ENE 50 60
25.08.2019 09:00:00 2,4 -10,8 11 6 - - ENE 50 60
25.08.2019 08:00:00 1,2 -0,7 13 7 - - NE 50 0
25.08.2019 07:00:00 1,4 -0,2 15 8 - - NE 50 0
25.08.2019 06:00:00 1,4 -1,3 18 10 - - NE 10 0
25.08.2019 05:00:00 1,4 -2,0 18 10 - - NE 10 0
25.08.2019 04:00:00 1,4 -1,0 9 5 - - NE 10 0
25.08.2019 03:00:00 2,0 1,1 5 3 - - N 0,3 0
25.08.2019 02:00:00 1,6 0,8 5 3 - - N 10 0
25.08.2019 01:00:00 1,6 0,7 4 2 - - N 10 0
25.08.2019 00:00:00 1,6 0,7 8 4 - - NE 10 0
24.08.2019 23:00:00 1,6 0,8 8 4 - - ENE 0,3 0
24.08.2019 22:00:00 1,6 0,8 9 5 - - NE 0,3 0
24.08.2019 21:00:00 1,8 1,1 18 10 - - NE 0,1 0
24.08.2019 20:00:00 2,2 1,3 13 7 - - NE 13 36
24.08.2019 19:00:00 2,2 1,3 11 6 - - NE 8 0
24.08.2019 18:00:00 2,8 1,3 8 4 - - N 1,5 18
24.08.2019 17:00:00 2,8 1,6 11 6 - - NE 15 0
24.08.2019 16:00:00 5,4 1,0 9 5 - - NE 0,1 0
24.08.2019 15:00:00 5,4 1,0 2 1 - - N 0,5 6
24.08.2019 14:00:00 5,2 1,7 4 2 - - - 0,1 12
24.08.2019 13:00:00 6,8 1,9 8 4 - - SSO 0,5 43
24.08.2019 12:00:00 5,8 2,3 8 4 - - SO 0,1 18
24.08.2019 11:00:00 5,2 1,3 9 5 - - SSO 0,1 36
24.08.2019 10:00:00 5,0 0,0 2 1 - - N 50 60
24.08.2019 09:00:00 3,6 0,1 2 1 - - N 50 60
24.08.2019 08:00:00 1,4 -0,7 8 4 - - ENE 50 0
24.08.2019 07:00:00 1,4 -0,7 8 4 - - ENE 50 0
24.08.2019 06:00:00 1,4 -0,4 8 4 - - NE 0,3 0
24.08.2019 05:00:00 1,4 0,7 4 2 - - - 0,5 0
24.08.2019 04:00:00 1,6 0,9 9 5 - - SO 0,5 0
24.08.2019 03:00:00 1,8 1,1 11 6 - - SO 0,5 0
24.08.2019 02:00:00 1,8 1,1 8 4 - - SSO 0,1 0
24.08.2019 01:00:00 1,8 1,1 5 3 - - N 0,1 0
24.08.2019 00:00:00 1,6 0,9 4 2 - - N 0,1 0
23.08.2019 23:00:00 1,6 0,9 9 5 - - NNE 0,1 0
23.08.2019 22:00:00 1,6 0,9 18 10 - - NE 0,1 0
23.08.2019 21:00:00 2,6 1,9 13 7 - - NE 0,1 0
23.08.2019 20:00:00 2,2 1,5 4 2 - - N 0,1 12
23.08.2019 19:00:00 2,2 1,5 4 2 - - N 0,1 0
23.08.2019 18:00:00 2,2 -0,1 13 7 - - NE 0,8 0
23.08.2019 17:00:00 3,0 2,3 5 3 - - N 0,1 0
23.08.2019 16:00:00 4,0 1,2 5 3 - - N 0,8 0
23.08.2019 15:00:00 5,4 1,9 4 2 - - N 0,3 0
23.08.2019 14:00:00 5,6 1,9 4 2 - - N 0,8 12
23.08.2019 13:00:00 6,2 1,7 4 2 - - N 0,8 12
23.08.2019 12:00:00 6,8 2,1 5 3 - - N 0,8 54
23.08.2019 11:00:00 5,2 -0,6 2 1 - - N 8 60
23.08.2019 10:00:00 4,8 0,8 5 3 - - N 35 60
23.08.2019 09:00:00 3,4 -0,4 8 4 - - SO 40 60
23.08.2019 08:00:00 1,8 -2,9 8 4 - - E 60 6
23.08.2019 07:00:00 1,4 -3,1 4 2 - - N 40 0
23.08.2019 06:00:00 1,2 -1,9 4 2 - - N 10 0
23.08.2019 05:00:00 1,0 -1,1 15 8 - - ENE 10 0
23.08.2019 04:00:00 1,0 -2,7 9 5 - - ENE 10 0
23.08.2019 03:00:00 1,0 -0,5 9 5 - - ENE 10 0
23.08.2019 02:00:00 1,6 -2,0 8 4 - - ENE 10 -
23.08.2019 01:00:00 1,4 -0,8 4 2 - - N 10 -
23.08.2019 00:00:00 1,6 0,9 8 4 - - E 0,1 -
22.08.2019 23:00:00 1,8 1,1 11 6 - - NE 0,1 -
22.08.2019 22:00:00 2,0 1,3 9 5 - - ENE 10 0
22.08.2019 21:00:00 2,0 1,3 9 5 - - NE 10 0
22.08.2019 20:00:00 2,2 1,5 4 2 - - N 12 36
22.08.2019 19:00:00 2,4 1,7 9 5 - - NE 25 54
22.08.2019 18:00:00 2,4 1,7 15 8 - - NE 15 18
22.08.2019 17:00:00 2,8 2,2 13 7 - - NE 6 0
22.08.2019 16:00:00 - - - - - - - - -
22.08.2019 15:00:00 3,2 -0,4 4 2 - - N 1,5 0
22.08.2019 14:00:00 5,2 -3,8 4 2 - - SSO 0,8 18
22.08.2019 13:00:00 6,0 1,9 2 1 - - N 0,8 18
22.08.2019 12:00:00 5,2 2,0 5 3 - - SO 0,1 0
22.08.2019 11:00:00 3,6 1,6 5 3 - - N 0,8 0
22.08.2019 10:00:00 2,6 1,1 4 2 - - N 0,1 12
22.08.2019 09:00:00 3,2 0,1 2 1 - - O 10 60
22.08.2019 08:00:00 2,2 1,5 5 3 - - S 50 12
22.08.2019 07:00:00 1,8 0,8 5 3 - - SO 20 0
22.08.2019 06:00:00 1,4 0,7 11 6 - - SSO 0,8 0
22.08.2019 05:00:00 1,4 0,8 8 4 - - OSO 0,1 0
22.08.2019 04:00:00 1,4 0,8 9 5 - - SSO 10 0
22.08.2019 03:00:00 1,6 0,1 9 5 - - SO 7 0
22.08.2019 02:00:00 1,8 1,2 15 8 - - S 0,1 0
22.08.2019 01:00:00 2,0 1,4 9 5 - - SSO 0,1 0
22.08.2019 00:00:00 2,0 0,5 11 6 - - S 0,8 0
21.08.2019 23:00:00 2,2 1,5 21 11 - - SE 0,8 0
21.08.2019 22:00:00 2,8 1,2 8 4 - - SSO 0,1 0
21.08.2019 21:00:00 2,6 0,0 4 2 - - N 0,1 0
21.08.2019 20:00:00 3,4 1,6 9 5 - - SO 0,8 30
21.08.2019 19:00:00 3,8 1,5 11 6 - - S 0,8 0
21.08.2019 18:00:00 3,2 2,3 8 4 - - S 0,1 0
21.08.2019 17:00:00 4,8 2,8 8 4 - - SSE 0,8 12
21.08.2019 16:00:00 4,4 2,1 5 3 - - SE 0,8 0
21.08.2019 15:00:00 4,4 2,3 5 3 - - SSE 0,3 0
21.08.2019 14:00:00 4,4 2,1 4 2 - - ESE 0,3 0
21.08.2019 13:00:00 4,6 1,3 4 2 - - N 0,1 1
21.08.2019 12:00:00 5,0 1,7 4 2 - - N 0,8 12
21.08.2019 11:00:00 4,8 1,7 8 4 - - SSO 0,1 48
21.08.2019 10:00:00 4,2 0,0 9 5 - - SSO 50 60
21.08.2019 09:00:00 3,0 -0,8 8 4 - - SO 50 60
21.08.2019 08:00:00 1,0 -3,3 9 5 - - SO 50 12
21.08.2019 07:00:00 1,0 -2,9 4 2 - - N 50 0
21.08.2019 06:00:00 1,0 -1,4 11 6 - - SSO 35 0
21.08.2019 05:00:00 1,2 -0,4 21 11 - - SSO 10 0
21.08.2019 04:00:00 1,0 0,0 9 5 - - SSO 10 0
21.08.2019 03:00:00 1,0 0,4 15 8 - - SO 10 0
21.08.2019 02:00:00 1,0 0,6 13 7 - - SO 10 0
21.08.2019 01:00:00 1,2 0,4 22 12 - - SSO 10 0
21.08.2019 00:00:00 1,4 0,7 24 13 - - SSO 0,8 0
20.08.2019 23:00:00 1,2 0,5 15 8 - - SSO 0,8 0
20.08.2019 22:00:00 1,2 0,5 8 4 - - SSO 0,1 0
20.08.2019 21:00:00 1,6 0,9 15 8 - - SO 0,1 0
20.08.2019 20:00:00 1,4 0,7 46 25 - - S 0,1 0
20.08.2019 19:00:00 1,8 1,1 28 15 - - SSO 0,1 0
20.08.2019 18:00:00 2,2 1,5 16 9 40 22 SSO 0,1 0
20.08.2019 17:00:00 2,2 1,5 18 10 - - SSO 0,1 0
20.08.2019 16:00:00 3,0 2,3 48 26 - - S 0,1 0
20.08.2019 15:00:00 2,8 2,1 26 14 53 28 SSO 0,1 0
20.08.2019 14:00:00 2,8 2,2 59 32 - - SSO 0,8 0
20.08.2019 13:00:00 2,2 1,6 54 29 73 40 SSO 0,8 0
20.08.2019 12:00:00 2,2 1,6 55 30 79 42 S 0,8 0

tt = Temperatura
td = dewpoint
ff = velocità del vento
fx = gusts
dd = direzione del vento
vv = visibility
sd = ore di luce

Stazioni seguenti

WeatherPro
AMSI
MeteoEarth